EA4TN Weather Reports


time (UTC)temp
C
wind
direction
speed
KPH
gust
KPH
rain 1hr
cm
rain 24hr
cm
rain mn
cm
humidity
%
barometer
mb
20260503203016 17 281 1.6 6.4 0.00 0.15 0.08 60 1012.2
20260503202016 17 277 3.2 9.7 0.00 0.15 0.08 60 1012.1
20260503201016 17 290 3.2 8.0 0.00 0.15 0.08 61 1011.8
20260503200016 17 272 3.2 8.0 0.00 0.15 0.08 61 1011.7
20260503195016 17 258 3.2 6.4 0.00 0.15 0.08 61 1011.6
20260503194016 17 265 3.2 8.0 0.00 0.15 0.08 60 1011.5
20260503193036 17 277 4.8 11.3 0.00 0.15 0.08 59 1011.3
20260503192036 17 281 4.8 12.9 0.00 0.15 0.08 58 1011.4
20260503191016 17 268 4.8 8.0 0.00 0.15 0.08 56 1011.2
20260503190016 18 265 8.0 12.9 0.00 0.15 0.08 56 1011.1
20260503185016 18 270 4.8 12.9 0.00 0.15 0.08 57 1011.0
20260503184036 18 262 8.0 16.1 0.00 0.15 0.08 55 1011.1
20260503183016 18 268 8.0 12.9 0.00 0.15 0.08 54 1011.1
20260503182016 18 275 9.7 17.7 0.00 0.15 0.08 55 1011.0
20260503181016 18 273 9.7 22.5 0.00 0.15 0.08 55 1011.1
20260503180016 18 271 9.7 19.3 0.00 0.15 0.08 54 1011.0
20260503175016 19 269 11.3 20.9 0.00 0.15 0.08 54 1011.1
20260503174036 19 280 8.0 20.9 0.00 0.15 0.08 54 1011.0
20260503173016 19 276 9.7 20.9 0.00 0.15 0.08 53 1011.0
20260503172016 19 271 9.7 17.7 0.00 0.15 0.08 53 1010.9
20260503171036 19 273 9.7 19.3 0.00 0.15 0.08 54 1011.0
20260503131016 20 272 11.3 24.1 0.00 0.15 0.08 53 1012.2
20260503081016 15 259 1.6 8.0 0.00 0.15 0.08 91 1014.2
20260503072016 13 264 3.2 6.4 0.00 0.23 0.08 93 1013.7
20260503071017 13 262 1.6 4.8 0.05 0.23 0.08 93 1013.8
20260503055036 13 197 1.6 3.2 0.00 0.15 0.00 90 1013.2
20260503054016 13 111 0.0 3.2 0.00 0.15 0.00 90 1013.2
20260503053016 13 0.0 1.6 0.00 0.15 0.00 90 1013.2
20260503052017 13 0.0 0.0 0.00 0.15 0.00 89 1013.3
20260503051036 13 245 0.0 3.2 0.00 0.15 0.00 89 1013.4
20260503050017 13 248 1.6 4.8 0.00 0.15 0.00 89 1013.4
20260503045017 13 0.0 3.2 0.00 0.15 0.00 89 1013.3
20260503044036 13 217 1.6 3.2 0.00 0.15 0.00 88 1013.3
20260503043017 13 113 1.6 6.4 0.00 0.15 0.00 88 1013.2
20260503042017 13 116 3.2 8.0 0.00 0.15 0.00 88 1013.4
20260503041017 13 0.0 0.0 0.00 0.15 0.00 88 1013.7
20260503040017 13 124 0.0 3.2 0.00 0.15 0.00 87 1014.0
20260503035036 13 110 1.6 6.4 0.00 0.15 0.00 88 1014.1
20260503034016 13 61 1.6 4.8 0.00 0.15 0.00 89 1014.1
20260503033017 13 61 0.0 1.6 0.00 0.15 0.00 90 1014.2
20260503032017 13 0.0 0.0 0.00 0.15 0.00 90 1014.3
20260503031016 13 0.0 1.6 0.00 0.15 0.00 90 1014.3
20260503030037 13 61 1.6 3.2 0.00 0.15 0.00 90 1014.4
20260503025016 13 61 1.6 3.2 0.00 0.15 0.00 90 1014.4
20260503024057 13 61 1.6 4.8 0.00 0.15 0.00 90 1014.3
20260503023017 13 61 1.6 3.2 0.00 0.15 0.00 90 1014.3
20260503022017 13 61 0.0 6.4 0.00 0.15 0.00 89 1014.3
20260503021017 13 61 1.6 3.2 0.00 0.15 0.00 89 1014.3
20260503020017 13 61 0.0 3.2 0.00 0.15 0.00 89 1014.2
20260503015016 13 61 0.0 1.6 0.00 0.15 0.00 89 1014.2
20260503014017 13 61 1.6 1.6 0.00 0.15 0.00 88 1014.3
20260503013037 13 61 0.0 3.2 0.00 0.15 0.00 87 1014.4
20260503012017 13 61 1.6 3.2 0.00 0.15 0.00 87 1014.5
20260503011017 13 0.0 3.2 0.00 0.15 0.00 87 1014.6
20260503010017 13 61 3.2 4.8 0.00 0.15 0.00 88 1014.6
20260503005017 13 61 0.0 3.2 0.00 0.15 0.00 88 1014.7
20260503004017 14 56 3.2 4.8 0.00 0.15 0.00 87 1014.9
20260503003037 14 351 0.0 1.6 0.00 0.15 0.00 87 1014.8
20260503002037 15 0.0 1.6 0.00 0.15 0.00 85 1015.0
20260503001017 15 256 0.0 1.6 0.00 0.15 0.00 85 1014.8
20260503000017 15 0.0 1.6 0.00 0.15 0.00 85 1014.9
20260502235016 14 256 1.6 3.2 0.00 0.15 0.15 85 1014.9
20260502234016 14 256 1.6 3.2 0.08 0.15 0.15 87 1015.0
20260502233016 14 256 0.0 1.6 0.08 0.15 0.15 88 1015.1
20260502232036 14 256 0.0 1.6 0.08 0.15 0.15 87 1015.1
20260502231017 15 256 0.0 3.2 0.08 0.15 0.15 86 1015.0
20260502230036 15 248 1.6 4.8 0.08 0.15 0.15 85 1015.2
20260502225016 15 239 3.2 6.4 0.08 0.15 0.15 84 1015.5
20260502224016 15 276 1.6 4.8 0.00 0.08 0.08 82 1015.3
20260502223016 15 276 0.0 1.6 0.00 0.08 0.08 82 1015.0
20260502222036 15 276 1.6 3.2 0.00 0.08 0.08 83 1015.2
20260502221016 15 276 1.6 3.2 0.00 0.08 0.08 82 1015.4
20260502220016 15 276 1.6 3.2 0.00 0.08 0.08 80 1015.3
20260502215036 15 274 1.6 6.4 0.00 0.08 0.08 78 1015.5
20260502214036 15 242 3.2 3.2 0.00 0.08 0.08 76 1015.2
20260502213017 15 241 3.2 6.4 0.00 0.08 0.08 76 1015.1
20260502212016 16 235 3.2 6.4 0.00 0.08 0.08 76 1015.2
20260502211016 16 249 1.6 4.8 0.00 0.08 0.08 75 1015.1
20260502210016 16 244 3.2 6.4 0.00 0.08 0.08 74 1014.9
20260502205016 16 245 1.6 6.4 0.00 0.08 0.08 74 1014.9
20260502204016 16 243 3.2 6.4 0.00 0.08 0.08 73 1014.9